www.pogodaiklimat.ru

Погода и климат >> Архив погоды >> Саудовская Аравия >> Madinah


ПОГОДА в Madinah

  • Прогноз погоды в Madinah
  • Монитор погоды в Madinah
  • Климат города

АРХИВ ПОГОДЫ в Madinah

Время (UTC), дата Ветер
(напр.,м/с)
 
Видим.   Явления Облачность Т
(С)
Тd
(С)
f
(%)
Тe
(С)
Тes
(С)
Комфортность P
(гПа)
Po
(гПа)
Тmin
(С)
Tmax
(С)
R
(мм)
R24
(мм)
S
(см)
00 14.11 З 2 10 км ясно +23.9 +15.0 57 +27 +27 жарко 1006.4 936.9
03 14.11 СЗ 2 10 км 5/4 1350 м
[Sc Ac trans]
+23.0 +15.0 61 +27 +27 душно 1006.6 936.7
06 14.11 СЗ 1 10 км 6/6 1350 м
[Sc]
+23.2 +13.0 53 +26 +28 жарко 1007.6 937.5 +23.0
09 14.11 10 км гроза без осадков н/о +21.6 +16.0 70 +25 +27 комфорт 1006.7 936.3
12 14.11 ЮВ 4 10 км 9/9 900 м
[Cu med, cong]
+22.4 +16.0 67 +27 +27 душно 1005.8 935.5
15 14.11 Ю 3 10 км 9/9 1350 м
[Sc]
+20.7 +15.0 70 +24 +24 комфорт 1006.5 935.9
18 14.11 ЮВ 3 10 км 6/3 1350 м
[Sc Ac trans]
+19.9 +14.0 69 +22 +22 комфорт 1007.8 937.1 +24.2
21 14.11 штиль 0 10 км 8/8 1350 м
[Sc]
+19.7 +14.0 70 +21 +21 комфорт 1008.1 937.1
00 15.11 В 2 10 км 5/5 1350 м
[Sc diur, vesp]
+19.3 +15.0 76 +21 +21 комфорт 1007.6 936.5 0.2
03 15.11 штиль 0 10 км 4/4 1350 м
[Sc]
+18.8 +18.0 95 +20 +20 1008.4 937.1
06 15.11 штиль 0 10 км 8/5 1350 м
[Sc Ac trans]
+20.0 +14.0 68 +22 +23 комфорт 1009.9 938.6 +18.8
09 15.11 З 3 10 км 4/3 1350 м
[Cu med, cong Ac trans]
+23.8 +6.0 32 +24 +30 комфорт 1008.3 937.5
12 15.11 ЮЗ 9 10 км 4/1 1350 м
[Cu hum Ac trans]
+26.0 +3.0 23 +25 +25 комфорт 1007.0 936.5
15 15.11 ЮЗ 8 10 км 3/3 1350 м
[Cu hum]
+23.2 +5.0 31 +23 +23 комфорт 1009.4 938.4
18 15.11 ЮЗ 6 10 км ясно +21.0 +2.0 28 +21 +21 комфорт 1012.0 940.9 +26.0
21 15.11 З 2 10 км ясно +18.6 +6.0 44 +19 +19 1012.4 941.4
00 16.11 ЮВ 6 10 км ясно +15.6 +8.0 61 +14 +14 1013.2 941.8
03 16.11 СЗ 2 10 км ясно +14.4 +8.0 65 +14 +14 1015.1 943.0
06 16.11 штиль 0 10 км ясно +17.3 +7.0 51 +17 +22 1017.6 945.5 +13.4
09 16.11 штиль 0 10 км ясно +21.7 +3.0 29 +22 +37 комфорт 1016.8 945.0
12 16.11 ЮВ 4 10 км ясно +25.0 +3.0 24 +24 +28 комфорт 1015.6 943.8
15 16.11 З 2 10 км 3/3 1200 м
[Cu hum]
+16.0 +2.7 41 +16 +16 1016.7 944.9
18 16.11 В 2 10 км ясно +21.6 +3.0 29 +22 +22 комфорт 1018.1 946.4 +25.0
21 16.11 В 2 10 км ясно +19.7 +5.0 38 +21 +21 комфорт 1017.7 946.2
00 17.11 С 1 10 км ясно +16.6 +8.0 57 +18 +18 1017.9 946.2
03 17.11 СВ 2 10 км ясно +16.1 +8.0 59 +16 +16 1019.1 947.0
06 17.11 СВ 4 10 км 3/3 1350 м
[Sc]
+18.2 +8.0 51 +18 +20 1020.7 948.4 +15.3
09 17.11 В 4 10 км ясно +24.5 +8.0 35 +25 +32 комфорт 1018.1 946.5
12 17.11 ЮВ 6 8000 м пыльный позёмок ясно +27.0 +9.0 32 +27 +30 жарко 1015.0 943.7
15 17.11 В 6 7000 м пыльный позёмок ясно +25.7 +10.0 37 +26 +26 жарко 1015.8 944.2
18 17.11 В 4 10 км ясно +23.2 +9.0 40 +25 +25 комфорт 1017.3 945.9 +27.0
21 17.11 В 7 10 км ясно +20.8 +9.0 47 +22 +22 комфорт 1017.2 946.1
00 18.11 В 5 10 км ясно +20.0 +9.0 49 +21 +21 комфорт 1016.8 945.8
03 18.11 СВ 3 10 км ясно +17.8 +10.0 60 +18 +18 1017.3 945.8
06 18.11 СВ 2 10 км 3/0
[Ci sp]
+19.3 +10.0 55 +21 +24 комфорт 1018.5 946.8 +17.3
09 18.11 ЮВ 5 10 км ясно +24.5 +12.0 46 +26 +32 жарко 1015.6 944.5
12 18.11 В 2 10 км ясно +27.0 +12.0 39 +28 +34 жарко 1012.2 941.5
15 18.11 З 3 10 км 3/0
[Ac trans]
+27.6 +12.0 38 1011.9 941.2
18 18.11 штиль 0 10 км 3/0
[Ac trans]
+26.0 +12.0 42 +27 +27 жарко 1012.6 942.0 +28.2
21 18.11 СВ 4 10 км 5/1 1350 м
[Sc Ac trans]
+23.5 +12.0 48 +25 +25 комфорт 1012.4 942.0
00 19.11 СВ 4 9000 м пыль ясно +22.0 +12.0 53 +24 +24 комфорт 1011.9 941.6
03 19.11 штиль 0 10 км 3/1 1350 м
[Sc Ac trans]
+20.9 +12.0 57 +23 +23 комфорт 1012.6 942.0
06 19.11 СВ 4 9000 м пыль 1/1 1350 м
[Sc diur, vesp]
+22.4 +11.0 48 +24 +27 комфорт 1014.2 943.5 +20.4
09 19.11 ЮЗ 1 10 км 1/1 1350 м
[Sc]
+26.5 +14.0 46 +29 +40 жарко 1013.1 942.6
12 19.11 З 9 10 км 4/4 1350 м
[Sc]
+29.3 +9.0 28 +29 +29 жарко 1010.5 940.4
15 19.11 ЮЗ 6 10 км 4/4 1350 м
[Sc]
+27.8 +8.0 29 +28 +28 жарко 1011.4 940.9
18 19.11 З 5 10 км ясно +25.9 +7.0 30 +26 +26 жарко 1013.4 942.9 +29.3
21 19.11 С 2 10 км ясно +22.1 +7.0 38 +23 +23 комфорт 1013.8 943.3
00 20.11 СЗ 2 10 км ясно +19.4 +8.0 48 +21 +21 комфорт 1013.6 943.0
03 20.11 СВ 4 10 км ясно +18.8 +13.0 69 +20 +20 1015.5 944.5
06 20.11 ЮВ 2 5000 м пыль ясно +19.4 +12.0 62 +21 +25 комфорт 1018.0 946.7 +17.0
09 20.11 В 2 7000 м пыль ясно +24.8 +11.0 42 +26 +37 жарко 1016.4 945.4
12 20.11 штиль 0 10 км ясно +28.0 +5.0 23 +27 +34 жарко 1014.1 943.4
15 20.11 ЮВ 2 10 км ясно +26.9 +6.0 26 +26 +26 жарко 1014.8 943.7
18 20.11 штиль 0 10 км ясно +24.3 +9.0 38 +25 +25 комфорт 1016.1 945.0 +28.0
21 20.11 В 4 10 км ясно +21.6 +12.0 54 +24 +24 комфорт 1017.3 946.4

 

Местоположение метеостанции Madinah (Саудовская Аравия): широта 24.55 долгота 39.70 высота над уровнем моря 636 м.

В архиве по умолчанию представлена погода в Madinah за последнюю неделю. Архивные данные за месяц целиком и за предыдущие месяцы, начиная с января 2011 года, Вы можете получить, выбрав интересующий диапазон дат из раскрывающегося списка и нажав кнопку "Ввод!".


*Определитесь, кто Вы:
робот инопланетянин человек

Внимание! Время в таблицах - всемирное. Для получения местного времени необходимо прибавить поправку, которая в Madinah равна 3 ч.

Смотрите также архив погоды в соседних городах и на ближайших метеорологических станциях:

Погода в Yanbu (Саудовская Аравия) (172 км)
Погода в Al-Ula (Саудовская Аравия) (267 км)
Погода в Jeddah King Abdul Aziz (Саудовская Аравия) (321 км)
Погода в Makkah (Саудовская Аравия) (347 км)
Погода в Mina (Саудовская Аравия) (349 км)
Погода в Al Taif (Саудовская Аравия) (352 км)
Погода в Arafat (Саудовская Аравия) (359 км)
Погода в Al-Wajh (Саудовская Аравия) (372 км)
Погода в Hail (Саудовская Аравия) (377 км)
Погода в Shalatin (Египет) (448 км)

Пояснения к столбцам:

Ветер - указаны скорость ветра в м/с - средняя за 10 мин, порывы в срок и между сроками (в фигурных скобках) и направление, откуда дует ветер: С - северный, СВ - северо-восточный, В - восточный, ЮВ - юго-восточный, Ю - южный, ЮЗ - юго-западный, З - западный, СЗ - северо-западный.
Видимость - горизонтальная дальность видимости в метрах или километрах. При видимости от 1 до 10 км при отсутствии осадков обычно наблюдается дымка, при ухудшении видимости до 1 км и менее - туман. В сухую погоду видимость может ухудшаться дымом, пылью или мглою.
Явления - указаны атмосферные явления, наблюдавшиеся в срок или в последний час перед сроком; фигурными скобками обозначены явления, наблюдавшиеся между сроками (за 1-3 часа до срока); квадратными скобками обозначены град или гололедные отложения с указанием их диаметра в мм.
Облачность - указаны через наклонную черту общая и нижняя облачность в баллах и высота нижней границы облаков в метрах; квадратными скобками обозначены формы облаков: Ci - перистые, Cs - перисто-слоистые, Cc - перисто-кучевые, Ac - высококучевые, As - высокослоистые, Sc - слоисто-кучевые, Ns - слоисто-дождевые, Cu - кучевые, Cb - кучево-дождевые. Подробнее классификацию облаков см. в Атласе облаков (PDF).
T - Температура воздуха - температура, измеренная на высоте 2 м над землей.
Td - Температура точки росы - температура, при понижении до которой содержащийся в воздухе водяной пар достигнет насыщения.
f - Относительная влажность воздуха - влажноcть воздуха, измеренная на высоте 2 м над землей.
Te - Эффективная температура - температура, которую ощущает одетый по сезону человек в тени. Характеристика душности погоды. При расчете учитывается влияние влажности воздуха и скорости ветра на теплоощущения человека.
Tes - Эффективная температура на солнце - температура, которую ощущает человек, с поправкой на солнечный нагрев. Характеристика знойности погоды. Зависит от высоты солнца над горизонтом, облачности и скорости ветра. Ночью, в пасмурную погоду, а также при ветре 12 м/с и более поправка равна нулю.
P - Атмосферное давление - приведенное к уровню моря атмосферное давление.
Po - Атмосферное давление - измеренное на уровне метеостанции атмосферное давление.
Tmin - Минимальная температура - минимум температуры воздуха на высоте 2 м над землей.
Tmax - Максимальная температура - максимум температуры воздуха на высоте 2 м над землей.
R - Количество осадков - Количество выпавших осадков за период времени, мм. При наведении курсора мыши на число - период времени, за который выпало указанное количество осадков.
R24 - Количество осадков - Количество выпавших осадков за 24 часа, мм.
S - Снежный покров - Высота снежного покрова, см. При наведении курсора мыши на число - состояние снежного покрова и степень покрытия местности в баллах.